{"data":{"norad_id":64941,"epoch":"2026-05-25T03:37:05.410848Z","epoch_age_seconds":55841,"freshness":"FRESH","line1":"1 64941U 25158K   26145.15075707  .00002338  00000+0  16604-3 0  9990","line2":"2 64941  97.4497   9.1127 0002268  90.6892 269.4595 15.05655416 46804","mean_motion":15.05655416,"eccentricity":0.0002268,"inclination_deg":97.4497,"raan_deg":9.1127,"arg_perigee_deg":90.6892,"mean_anomaly_deg":269.4595,"bstar":0.00016604,"rev_number":4680,"period_min":95.63941288941,"perigee_km":547.92335421235,"apogee_km":551.06572787937,"semimajor_km":6927.6315410459,"source":"CELESTRAK","updated_at":"2026-05-25T13:38:20.631357Z"}}